Вернуться в каталог

STARLINK-30261

АктивенСвязьVLEO
NORAD 57523·PAYLOAD·🇺🇸 United States

Запущен Aug 8, 2023 с Vandenberg Space Force Base

Loading…

Ближайшие Пролёты (ближайшие 24 часа)

TLE

СвежийSource: CelesTrak SupGP

Эпоха: Sep 14, 2026, 20:53 UTC

1 57523C 23115C   26257.87062500 -.00009307  00000+0 -33695-3 0  2570
2 57523  43.0025  13.4293 0001375 267.6548  12.0382 15.27597314    15

Отслеживайте STARLINK-30261 в реальном времени с AllMySat

Download on the App Store